This demonstration page uses our WeatherBlox Daily Observations layout. Learn more.

Left ArrowRight Arrow

39.01783, -85.05884

Hourly Observations for July 31, 2015

Temp ( °F °C ) Dew Point ( °F °C ) Humidity (%) Winds ( mph kmh ) Pressure ( in mb ) Visibility ( mi km ) Precip ( " mm )
12:52 am 00:52 Clear 72 22 62 16.5 71 71 VRB 3 6 30.05 1018 10 16 N/A
1:52 am 01:52 Clear 71 21.5 62 16.5 73 73 N N/A 30.04 1017 10 16 N/A
2:52 am 02:52 Clear 68 19.8 62 16.8 83 83 VRB 3 6 30.04 1017 10 16 N/A
3:52 am 03:52 Clear 68 19.9 62 16.4 80 80 VRB 3 6 30.03 1017 10 16 N/A
4:52 am 04:52 Clear 66 18.9 62 16.5 86 86 N N/A 30.02 1017 10 16 N/A
5:52 am 05:52 Clear 66 18.8 61 16.2 85 85 N N/A 30.02 1017 10 16 N/A
6:52 am 06:52 Sunny 65 18.5 61 16.1 86 86 N N/A 30.03 1017 10 16 N/A
7:52 am 07:52 Sunny 66 18.7 61 16.1 85 85 N N/A 30.04 1017 10 16 N/A
8:52 am 08:52 Sunny 66 18.7 61 16.1 85 85 N N/A 30.05 1018 10 16 N/A
10:07 am 10:07 Sunny 77 25 64 18 65 65 W 6 9 30.03 1017 10 16 N/A
10:38 am 10:38 Sunny 79 26 66 19 65 65 W 5 7 30.03 1017 10 16 N/A
10:52 am 10:52 Sunny 80 26.7 66 18.9 62 62 W 6 9 30.03 1017 10 16 N/A
11:52 am 11:52 Sunny 83 28.3 64 17.8 53 53 WNW 7 11 30.04 1017 10 16 N/A
1:52 pm 13:52 Mostly Sunny 85 29.4 59 15 42 42 W 6 9 30.01 1016 10 16 N/A
2:52 pm 14:52 Mostly Sunny 87 30.6 55 12.8 34 34 NW 10 17 29.99 1016 10 16 N/A
3:52 pm 15:52 Partly Cloudy 87 30.6 58 14.4 37 37 NW 16 26 29.98 1015 10 16 N/A
4:52 pm 16:52 Partly Cloudy 87 30.6 58 14.4 37 37 WNW 6 9 29.96 1015 10 16 N/A
5:52 pm 17:52 Mostly Sunny 86 30 60 15.6 42 42 W 12 19 29.95 1014 10 16 N/A
6:52 pm 18:52 Mostly Sunny 85 29.4 61 16.1 45 45 W 7 11 29.94 1014 10 16 N/A
7:52 pm 19:52 Partly Cloudy 82 27.8 59 15 46 46 W 5 7 29.94 1014 10 16 N/A
8:52 pm 20:52 Mostly Clear 78 25.6 60 15.6 54 54 SW 6 9 29.94 1014 10 16 N/A
9:52 pm 21:52 Mostly Clear 76 24.4 60 15.6 58 58 SW 6 9 29.94 1014 10 16 N/A
10:52 pm 22:52 Partly Cloudy 76 24.4 60 15.6 58 58 WSW 7 11 29.95 1014 10 16 N/A
11:52 pm 23:52 Clear 71 21.7 61 16.1 71 71 W 7 11 29.96 1015 10 16 N/A

Powered by AerisWeather